一网星座-0329星 (ONEWEB-0329 )

导读

ONEWEB-0329是英国OneWeb卫星星座中的一颗低轨互联网通信卫星,于2021年8月21日发射入轨。OneWeb星座计划打造全球覆盖的高速低延迟卫星互联网,为偏远地区提供宽带接入服务。该卫星是OneWeb完成全球648颗低轨卫星组网的重要组成部分,助力实现全球泛在连接,推动卫星通信技术发展,目前已随星座部署完成正常在轨服务,支撑全球卫星互联网运营。

基本信息
目录编号:
49107
目录名称:
ONEWEB-0329
国际标识:
2021-075AJ
轨道中心:
EARTH
卫星名称:
一网星座-0329星
卫星全名:
一网星座-0329星 (ONEWEB-0329 )
卫星状态:
在轨 (已飞行1847 天)
发射日期:
2021-08-21 UTC
国别 :
英国 (GB)
星等 :
--
该卫星已列入 空间交会检测服务 Space Conjunction Data Service (SCDS) ,当前飞行风险评估等级: 无高风险
轨道信息
数据来源 国际轨道数据 AOE轨道数据
星历时间 2026-09-11T13:13:14+0800
8小时前
查看轨道信息
2026-09-07T02:00:00+0800
4天前
查看轨道信息
半长轴 7571.847km 7571.862km
偏心率 0.0001789 0.0001782
轨道倾角 87.921° 87.922°
近地点辐角 105.227° 98.955°
升交点赤经 348.782° 349.669°
平近点角 254.906° 321.394°
近地点 1192.355km 1192.375km
远地点 1195.065km 1195.075km
周期 109.285分钟 109.286分钟
每日圈数 13.1765 13.17646
详细信息
平衡模式:
三轴稳定
覆盖范围:
全球
运营商:
一网卫星公司
运营商所在国:
英国
制造商(研发单位):
一网卫星公司
制造商所在国:
英国
使用方式:
暂无
卫星简介
OneWeb卫星网络由648颗重约125公斤的微型卫星组成,运行在1200公里的轨道上。 每颗卫星都能够提供至少每秒8千兆位的吞吐量,以使用其高吞吐量的Ku频段有效载荷为家庭和移动平台提供互联网接入。该卫星仍在工作。
2D轨道图
3D轨道图
轨道高度分析图
轨道倾角分析图
轨道综合分析图
查看轨道综合分析图
与全量物体交会距离演化趋势
与全量物体交会风险概率演化趋势